Regional Weather Roundup
Issued by NWS

Home | Current Version | Previous Version | Graphics & Text | Print | Product List | Glossary On
Versions: 1 2 3 4 5 6 7 8 9 10 11 12 13 14 15 16 17 18 19 20 21 22 23 24 25 26 27 28 29 30 31 32 33 34 35 36 37 38 39 40 41 42 43 44 45 46 47 48 49 50
775
ASUS45 KBOI 260710
RWRID

IDAHO REGIONAL WEATHER ROUNDUP
NATIONAL WEATHER SERVICE BOISE ID
100 AM MDT WED APR 26 2017

NOTE: "FAIR" INDICATES FEW OR NO CLOUDS BELOW 12000 FEET
WITH NO SIGNIFICANT WEATHER AND/OR OBSTRUCTIONS TO VISIBILITY

IDZ012-014-260800-
SOUTHWEST IDAHO


CITY           SKY/WX    TMP DP  RH WIND       PRES   REMARKS
BOISE          LGT RAIN  48  38  68 N8        29.91F
CALDWELL       LGT RAIN  50  39  66 NW6       29.90F
MOUNTAIN HOME  CLOUDY    49  35  58 CALM      29.90S
$$

IDZ016-017-260800-
SOUTHCENTRAL IDAHO


CITY           SKY/WX    TMP DP  RH WIND       PRES   REMARKS
BURLEY         MOCLDY    43  31  62 SW8       29.90S
JEROME         CLOUDY    44  34  67 S5        29.91S
TWIN FALLS     CLOUDY    43  35  73 S8        29.92R
$$

IDZ019>023-260800-
SOUTHEAST IDAHO


CITY           SKY/WX    TMP DP  RH WIND       PRES   REMARKS
IDAHO FALLS    PTCLDY    42  30  62 S21G28    29.84F
POCATELLO      PTCLDY    43  30  60 S15       29.89S
REXBURG        CLOUDY    41  29  62 S10       29.83F
$$

IDZ006-010-011-018-031-032-260800-
CENTRAL IDAHO MOUNTAINS


CITY           SKY/WX    TMP DP  RH WIND       PRES   REMARKS
MCCALL         CLOUDY    41  29  62 S13       29.83F
HAILEY         CLOUDY    43  21  42 N3        29.89S
STANLEY          N/A     35  22  58 E3        29.88F
SALMON         CLOUDY    39  34  81 CALM      29.82F
CHALLIS        MOCLDY    40  22  48 SW6       29.85R
$$

IDZ002-004-006-007-026-260800-
NORTHERN IDAHO


CITY           SKY/WX    TMP DP  RH WIND       PRES   REMARKS
LEWISTON       LGT RAIN  50  46  86 CALM      29.81S
LOWELL           N/A     46  44  93 NW3       29.85S
COEUR D`ALENE  PTCLDY    40  39  97 E3        29.81F
MULLAN PASS    CLOUDY    31  29  92 VRB7      29.77F WCI  24
$$




USA.gov is the U.S. government's official web portal to all federal, state and local government web resources and services.